Location: Napoli
(40.8639°N, 14.2562°E)
Time: 21:54:16
(UTC+02:00)

ISS - Pass Details

Date: 13 October 2017
Orbit: 401 x 408 km, 51.6° (Epoch: 21 October)

Event Time Altitude Azimuth Distance (km) Brightness Sun altitude
Rises 20:07:15 0° 303° (WNW) 2,326 1.1 -20.0°
Reaches altitude 10° 20:09:22 10° 298° (WNW) 1,464 0.0 -20.4°
Maximum altitude 20:12:35 53° 221° (SW) 502 -3.3 -21.0°
Enters shadow 20:12:38 53° 216° (SW) 502 -3.3 -21.0°
